Estación de Hornitos

Ultimos registro cada 15 minutos 21
Estación Fecha / Hora Temperatura Humedad Lluvia Velocidad Dirección Radiación Presion
21 Hornitos 05-05-2026 05:00 6,7 71 0 0,4 239 0 1012,1
20 Hornitos 05-05-2026 04:45 7 72 0 0,4 239 0 1011,8
19 Hornitos 05-05-2026 04:30 6,9 71 0 0 239 0 1011,7
18 Hornitos 05-05-2026 04:15 7,5 71 0 0 239 0 1011,4
17 Hornitos 05-05-2026 04:00 8 71 0 0 239 0 1011,4
16 Hornitos 05-05-2026 03:45 8,2 72 0 0 239 0 1011,3
15 Hornitos 05-05-2026 03:30 7,9 70 0 0 243 0 1011,3
14 Hornitos 05-05-2026 03:15 8,1 70 0 0 243 0 1011,2
13 Hornitos 05-05-2026 03:00 8,1 70 0 0 243 0 1011,5
12 Hornitos 05-05-2026 02:45 8,2 69 0 0 246 0 1011,5
11 Hornitos 05-05-2026 02:30 8,4 69 0 0 246 0 1011,6
10 Hornitos 05-05-2026 02:15 8,6 68 0 0 246 0 1011,9
9 Hornitos 05-05-2026 02:00 8,9 69 0 0 246 0 1011,8
8 Hornitos 05-05-2026 01:45 9,1 70 0 0 246 0 1011,9
7 Hornitos 05-05-2026 01:30 8,8 69 0 0 240 0 1011,9
6 Hornitos 05-05-2026 01:15 8,8 70 0 0 240 0 1011,9
5 Hornitos 05-05-2026 01:00 8,9 69 0 0 243 0 1012,1
4 Hornitos 05-05-2026 00:45 9,2 69 0 0 243 0 1012,1
3 Hornitos 05-05-2026 00:30 9,3 68 0 0 243 0 1011,9
2 Hornitos 05-05-2026 00:15 9,5 69 0 0 243 0 1012,2
1 Hornitos 05-05-2026 00:00 9,7 69 0 0 243 0 1012,5